Regional Weather Roundup
Issued by NWS

Home | Current Version | Previous Version | Text Only | Print | Product List | Glossary On
Versions: 1 2 3 4 5 6 7 8 9 10 11 12 13 14 15 16 17 18 19 20 21 22 23 24 25 26 27 28 29 30 31 32 33 34 35 36 37 38 39 40 41 42 43 44 45 46 47 48 49 50
000
ASUS44 KLIX 200112
RWRLA
LOUISIANA WEATHER ROUNDUP
NATIONAL WEATHER SERVICE NEW ORLEANS LA
700 PM CST SUN FEB 19 2017

NOTE: "FAIR" INDICATES FEW OR NO CLOUDS BELOW 12,000 FEET WITH NO
      SIGNIFICANT WEATHER AND/OR OBSTRUCTIONS TO VISIBILITY.
      SKY/WX - SKY CONDITION AND SIGNIFICANT WEATHER.
      TMP - AIR TEMPERATURE.    DP   - DEWPOINT TEMPERATURE.
      RH  - RELATIVE HUMIDITY.  PRES - PRESSURE.
      HX  - HEAT INDEX.         WCI  - WIND CHILL INDEX.

*  THESE STATIONS ARE NOT NWS OR FAA STATIONS AND ARE NOT UNDER
   NWS QUALITY CONTROL.

LAZ040-048-061>063-065-066-069-200200-
SOUTHEAST LOUISIANA

CITY           SKY/WX    TMP DP  RH WIND       PRES   REMARKS
N.O. AUDUBON   NOT AVBL
N.O. INTL ARPT PTCLDY    69  63  81 SE8       30.05R
N.O. LAKEFRONT CLEAR     68  65  90 SE8       30.05R
N.O. DOWNTOWN*   N/A     70  64  81 SE5       30.06R
RESERVE*       FAIR      70  66  87 E3        30.04R
SLIDELL        CLEAR     65  59  81 CALM      30.04S
BATON ROUGE    CLEAR     69  63  81 E7        30.03R
BOOTHVILLE     CLEAR     64  64 100 E5        30.06R
BELLE CHASSE   CLEAR     67  65  93 E7        30.04R
BOGALUSA*      FAIR      73  46  38 S5        30.05R
GALLIANO*      PTCLDY    68  64  88 E6        30.05R
NEW ROADS*     FAIR      69  62  78 E5        30.02R
GONZALES*      FAIR      70  63  78 CALM      30.02R
HAMMOND*       CLEAR     64  55  72 SE7       30.04R
HOUMA*         CLOUDY    69  67  92 E7        30.04R
PORT FOURCHON* MOCLDY    68  66  94 E8        30.04R

$$

LAZ041-044-053-054-200200-
SOUTHWEST LOUISIANA

CITY           SKY/WX    TMP DP  RH WIND       PRES   REMARKS
LAKE CHARLES   CLOUDY    71  68  90 SE14      29.96S
LAFAYETTE      CLEAR     76  68  76 S3        30.00R
PATTERSON      CLOUDY    71  67  87 SE9       30.03R
SALT POINT       N/A     70  67  90 SE8       30.00S
NEW IBERIA     CLEAR     70  64  81 SE7       30.01R
CHENAULT AIRPK CLOUDY    70  68  94 SE12      29.98R

$$

LAZ027-028-200200-
CENTRAL LOUISIANA

CITY           SKY/WX    TMP DP  RH WIND       PRES   REMARKS
FORT POLK      MOCLDY    72  67  85 SE6       29.96S
ALEXANDRIA INT CLEAR     71  62  73 E9        29.97S
ALEXANDRIA     CLEAR     66  61  84 E3        30.00R

$$

LAZ001-002-200200-
NORTHWEST LOUISIANA

CITY           SKY/WX    TMP DP  RH WIND       PRES   REMARKS
SHREVEPORT     MOCLDY    74  57  55 S7        29.93S
BARKSDALE AFB  PTCLDY    72  56  57 SE7       29.94S
DTN SHREVEPORT PTCLDY    75  56  51 SE8       29.94R

$$

LAZ014-016-200200-
NORTHEAST LOUISIANA

CITY           SKY/WX    TMP DP  RH WIND       PRES   REMARKS
MONROE         CLEAR     67  51  56 CALM      30.02R
TALLULAH       CLEAR     67  46  47 CALM      30.02R

$$




USA.gov is the U.S. government's official web portal to all federal, state and local government web resources and services.